Location: Newark
(44.1667°N, 8.2500°E)
Time: 23:44:26
(UTC+00:00)

Vanguard 2 - Pass Details

Date: 12 December 2019
Orbit: 553 x 2938 km, 32.9° (Epoch: 21 January)

Event Time Altitude Azimuth Distance (km) Brightness Sun altitude
Exits shadow 04:26:40 28° 253° (WSW) 4,424 10.8 -25.2°
Maximum altitude 04:36:38 50° 197° (SSW) 3,368 10.6 -23.5°
Drops below altitude 10° 04:50:58 10° 128° (SE) 4,913 12.5 -20.9°
Sets 04:54:26 0° 123° (ESE) 5,648 13.2 -20.3°
